"Sample Date","Sample Time","Sample Value","Units","Flow Rate","Number Channels","Micron Size 0","Counts/Channel 0","Micron Size 1","Counts/Channel 1","Micron Size 2","Counts/Channel 2","Micron Size 3","Counts/Channel 3","Micron Size 4","Counts/Channel 4","Micron Size 5","Counts/Channel 5","Micron Size 6","Counts/Channel 6","Micron Size 7","Counts/Channel 7","Micron Size 8","Counts/Channel 8","Micron Size 9","Counts/Channel 9","Micron Size 10","Counts/Channel 10","Micron Size 11","Counts/Channel 11","Micron Size 12","Counts/Channel 12","Micron Size 13","Counts/Channel 13","Micron Size 14","Counts/Channel 14","Micron Size 15","Counts/Channel 15","Micron Size 16","Counts/Channel 16","Micron Size 17","Counts/Channel 17","Micron Size 18","Counts/Channel 18","Micron Size 19","Counts/Channel 19","Micron Size 20","Counts/Channel 20","Micron Size 21","Counts/Channel 21","Micron Size 22","Counts/Channel 22","Micron Size 23","Counts/Channel 23","Micron Size 24","Counts/Channel 24","Micron Size 25","Counts/Channel 25","Micron Size 26","Counts/Channel 26","Micron Size 27","Counts/Channel 27","Micron Size 28","Counts/Channel 28","Micron Size 29","Counts/Channel 29","Micron Size 30","Counts/Channel 30","Micron Size 31","Counts/Channel 31"
"05/05/08","01:00:02",269.000,"cc",28262.857,6,0.100,123.000,0.200,32.000,0.300,61.000,0.500,52.000,1.000,1.000,5.000,0
"05/05/08","01:00:08",209.000,"cc",28273.162,6,0.100,104.000,0.200,32.000,0.300,31.000,0.500,42.000,1.000,0,5.000,0
"05/05/08","01:00:14",273.000,"cc",28377.898,6,0.100,133.000,0.200,36.000,0.300,55.000,0.500,46.000,1.000,3.000,5.000,0
"05/05/08","01:00:20",221.000,"cc",28319.938,6,0.100,93.000,0.200,30.000,0.300,53.000,0.500,45.000,1.000,0,5.000,0
"05/05/08","01:00:26",218.000,"cc",28341.010,6,0.100,89.000,0.200,38.000,0.300,49.000,0.500,41.000,1.000,1.000,5.000,0
"05/05/08","01:00:32",223.000,"cc",28336.949,6,0.100,112.000,0.200,23.000,0.300,38.000,0.500,50.000,1.000,0,5.000,0
"05/05/08","01:00:38",224.000,"cc",28323.277,6,0.100,96.000,0.200,27.000,0.300,45.000,0.500,54.000,1.000,2.000,5.000,0
"05/05/08","01:00:44",213.000,"cc",28304.990,6,0.100,93.000,0.200,37.000,0.300,34.000,0.500,48.000,1.000,1.000,5.000,0
"05/05/08","01:00:50",253.000,"cc",28359.158,6,0.100,115.000,0.200,22.000,0.300,52.000,0.500,62.000,1.000,2.000,5.000,0
"05/05/08","01:00:56",213.000,"cc",28249.828,6,0.100,95.000,0.200,36.000,0.300,37.000,0.500,44.000,1.000,1.000,5.000,0
"05/05/08","01:01:02",246.000,"cc",28277.371,6,0.100,100.000,0.200,40.000,0.300,51.000,0.500,52.000,1.000,3.000,5.000,0
"05/05/08","01:01:08",247.000,"cc",28275.281,6,0.100,108.000,0.200,28.000,0.300,56.000,0.500,54.000,1.000,1.000,5.000,0
"05/05/08","01:01:14",251.000,"cc",28377.109,6,0.100,123.000,0.200,25.000,0.300,55.000,0.500,47.000,1.000,1.000,5.000,0
"05/05/08","01:01:20",243.000,"cc",28361.303,6,0.100,106.000,0.200,34.000,0.300,57.000,0.500,44.000,1.000,2.000,5.000,0
"05/05/08","01:01:26",215.000,"cc",28350.137,6,0.100,84.000,0.200,30.000,0.300,52.000,0.500,48.000,1.000,1.000,5.000,0
"05/05/08","01:01:32",249.000,"cc",28296.824,6,0.100,102.000,0.200,34.000,0.300,44.000,0.500,69.000,1.000,0,5.000,0
"05/05/08","01:01:38",227.000,"cc",28281.385,6,0.100,101.000,0.200,25.000,0.300,45.000,0.500,55.000,1.000,1.000,5.000,0
"05/05/08","01:01:44",243.000,"cc",28325.895,6,0.100,100.000,0.200,25.000,0.300,46.000,0.500,72.000,1.000,0,5.000,0
"05/05/08","01:01:50",220.000,"cc",28309.721,6,0.100,92.000,0.200,31.000,0.300,41.000,0.500,56.000,1.000,0,5.000,0
"05/05/08","01:01:56",251.000,"cc",28289.018,6,0.100,125.000,0.200,32.000,0.300,44.000,0.500,48.000,1.000,2.000,5.000,0
"05/05/08","01:02:02",243.000,"cc",28317.410,6,0.100,92.000,0.200,28.000,0.300,53.000,0.500,68.000,1.000,2.000,5.000,0
"05/05/08","01:02:08",219.000,"cc",28374.424,6,0.100,90.000,0.200,28.000,0.300,41.000,0.500,59.000,1.000,1.000,5.000,0
"05/05/08","01:02:14",254.000,"cc",28269.268,6,0.100,116.000,0.200,37.000,0.300,42.000,0.500,56.000,1.000,3.000,5.000,0
"05/05/08","01:02:20",249.000,"cc",28327.428,6,0.100,107.000,0.200,29.000,0.300,47.000,0.500,62.000,1.000,4.000,5.000,0
"05/05/08","01:02:26",227.000,"cc",28315.836,6,0.100,97.000,0.200,28.000,0.300,39.000,0.500,61.000,1.000,2.000,5.000,0
"05/05/08","01:02:32",236.000,"cc",28333.834,6,0.100,115.000,0.200,31.000,0.300,36.000,0.500,53.000,1.000,1.000,5.000,0
"05/05/08","01:02:38",239.000,"cc",28312.969,6,0.100,99.000,0.200,29.000,0.300,44.000,0.500,65.000,1.000,2.000,5.000,0
"05/05/08","01:02:44",246.000,"cc",28259.385,6,0.100,112.000,0.200,30.000,0.300,48.000,0.500,55.000,1.000,1.000,5.000,0
"05/05/08","01:02:50",268.000,"cc",28345.078,6,0.100,124.000,0.200,35.000,0.300,53.000,0.500,56.000,1.000,0,5.000,0
"05/05/08","01:02:56",250.000,"cc",28304.072,6,0.100,110.000,0.200,30.000,0.300,44.000,0.500,65.000,1.000,1.000,5.000,0
"05/05/08","01:03:02",277.000,"cc",28325.486,6,0.100,125.000,0.200,30.000,0.300,45.000,0.500,77.000,1.000,0,5.000,0
"05/05/08","01:03:08",263.000,"cc",28361.600,6,0.100,114.000,0.200,44.000,0.300,52.000,0.500,53.000,1.000,0,5.000,0
"05/05/08","01:03:14",227.000,"cc",28262.293,6,0.100,86.000,0.200,26.000,0.300,45.000,0.500,68.000,1.000,2.000,5.000,0
"05/05/08","01:03:20",265.000,"cc",28323.311,6,0.100,110.000,0.200,43.000,0.300,44.000,0.500,66.000,1.000,2.000,5.000,0
"05/05/08","01:03:26",234.000,"cc",28322.602,6,0.100,110.000,0.200,24.000,0.300,42.000,0.500,55.000,1.000,3.000,5.000,0
"05/05/08","01:03:32",260.000,"cc",28317.139,6,0.100,126.000,0.200,29.000,0.300,44.000,0.500,60.000,1.000,1.000,5.000,0
"05/05/08","01:03:38",284.000,"cc",28307.496,6,0.100,122.000,0.200,33.000,0.300,59.000,0.500,68.000,1.000,2.000,5.000,0
"05/05/08","01:03:44",251.000,"cc",28321.986,6,0.100,117.000,0.200,28.000,0.300,43.000,0.500,63.000,1.000,0,5.000,0
"05/05/08","01:03:50",248.000,"cc",28286.645,6,0.100,103.000,0.200,39.000,0.300,37.000,0.500,68.000,1.000,1.000,5.000,0
"05/05/08","01:03:56",281.000,"cc",28342.635,6,0.100,125.000,0.200,37.000,0.300,52.000,0.500,65.000,1.000,2.000,5.000,0
"05/05/08","01:04:02",225.000,"cc",28280.916,6,0.100,114.000,0.200,20.000,0.300,40.000,0.500,49.000,1.000,2.000,5.000,0
"05/05/08","01:04:08",234.000,"cc",28348.297,6,0.100,106.000,0.200,36.000,0.300,42.000,0.500,50.000,1.000,0,5.000,0
"05/05/08","01:04:14",240.000,"cc",28310.104,6,0.100,98.000,0.200,31.000,0.300,53.000,0.500,57.000,1.000,1.000,5.000,0
"05/05/08","01:04:20",269.000,"cc",28357.565,6,0.100,112.000,0.200,47.000,0.300,61.000,0.500,47.000,1.000,2.000,5.000,0
"05/05/08","01:04:26",266.000,"cc",28359.883,6,0.100,129.000,0.200,33.000,0.300,44.000,0.500,58.000,1.000,2.000,5.000,0
"05/05/08","01:04:32",265.000,"cc",28322.098,6,0.100,115.000,0.200,41.000,0.300,58.000,0.500,49.000,1.000,2.000,5.000,0
"05/05/08","01:04:38",264.000,"cc",28316.580,6,0.100,118.000,0.200,32.000,0.300,45.000,0.500,69.000,1.000,0,5.000,0
"05/05/08","01:04:44",229.000,"cc",28284.549,6,0.100,113.000,0.200,24.000,0.300,35.000,0.500,54.000,1.000,3.000,5.000,0
"05/05/08","01:04:50",262.000,"cc",28336.856,6,0.100,94.000,0.200,42.000,0.300,47.000,0.500,77.000,1.000,2.000,5.000,0
"05/05/08","01:04:56",230.000,"cc",28264.654,6,0.100,112.000,0.200,25.000,0.300,45.000,0.500,48.000,1.000,0,5.000,0
"05/05/08","01:05:02",256.000,"cc",28293.854,6,0.100,114.000,0.200,30.000,0.300,47.000,0.500,64.000,1.000,1.000,5.000,0
"05/05/08","01:05:08",242.000,"cc",28374.867,6,0.100,117.000,0.200,29.000,0.300,39.000,0.500,57.000,1.000,0,5.000,0
"05/05/08","01:05:14",240.000,"cc",28370.721,6,0.100,93.000,0.200,39.000,0.300,35.000,0.500,71.000,1.000,2.000,5.000,0
"05/05/08","01:05:20",262.000,"cc",28346.022,6,0.100,113.000,0.200,33.000,0.300,45.000,0.500,71.000,1.000,0,5.000,0
"05/05/08","01:05:26",226.000,"cc",28311.293,6,0.100,90.000,0.200,27.000,0.300,46.000,0.500,63.000,1.000,0,5.000,0
"05/05/08","01:05:32",224.000,"cc",28281.801,6,0.100,82.000,0.200,30.000,0.300,43.000,0.500,66.000,1.000,3.000,5.000,0
"05/05/08","01:05:38",244.000,"cc",28272.693,6,0.100,105.000,0.200,27.000,0.300,45.000,0.500,67.000,1.000,0,5.000,0
"05/05/08","01:05:44",255.000,"cc",28332.875,6,0.100,123.000,0.200,25.000,0.300,50.000,0.500,56.000,1.000,1.000,5.000,0
"05/05/08","01:05:50",258.000,"cc",28317.143,6,0.100,120.000,0.200,33.000,0.300,44.000,0.500,61.000,1.000,0,5.000,0
"05/05/08","01:05:56",287.000,"cc",28235.201,6,0.100,135.000,0.200,35.000,0.300,44.000,0.500,72.000,1.000,1.000,5.000,0
"05/05/08","01:06:02",265.000,"cc",28418.522,6,0.100,114.000,0.200,32.000,0.300,43.000,0.500,76.000,1.000,0,5.000,0
"05/05/08","01:06:08",260.000,"cc",28340.387,6,0.100,112.000,0.200,35.000,0.300,47.000,0.500,65.000,1.000,1.000,5.000,0
"05/05/08","01:06:14",253.000,"cc",28243.065,6,0.100,97.000,0.200,36.000,0.300,53.000,0.500,66.000,1.000,1.000,5.000,0
"05/05/08","01:06:20",285.000,"cc",28287.100,6,0.100,124.000,0.200,39.000,0.300,43.000,0.500,79.000,1.000,0,5.000,0
"05/05/08","01:06:26",239.000,"cc",28376.482,6,0.100,112.000,0.200,28.000,0.300,41.000,0.500,57.000,1.000,1.000,5.000,0
"05/05/08","01:06:32",255.000,"cc",28335.811,6,0.100,112.000,0.200,28.000,0.300,45.000,0.500,68.000,1.000,2.000,5.000,0
"05/05/08","01:06:38",262.000,"cc",28362.361,6,0.100,109.000,0.200,35.000,0.300,43.000,0.500,73.000,1.000,2.000,5.000,0
"05/05/08","01:06:44",284.000,"cc",28230.174,6,0.100,114.000,0.200,40.000,0.300,51.000,0.500,79.000,1.000,0,5.000,0
"05/05/08","01:06:50",297.000,"cc",28278.588,6,0.100,135.000,0.200,28.000,0.300,57.000,0.500,77.000,1.000,0,5.000,0
"05/05/08","01:06:56",259.000,"cc",28340.326,6,0.100,102.000,0.200,39.000,0.300,49.000,0.500,66.000,1.000,3.000,5.000,0
"05/05/08","01:07:02",262.000,"cc",28254.076,6,0.100,116.000,0.200,31.000,0.300,46.000,0.500,68.000,1.000,1.000,5.000,0
"05/05/08","01:07:08",244.000,"cc",28336.285,6,0.100,102.000,0.200,29.000,0.300,38.000,0.500,74.000,1.000,1.000,5.000,0
"05/05/08","01:07:14",255.000,"cc",28345.541,6,0.100,116.000,0.200,29.000,0.300,49.000,0.500,61.000,1.000,0,5.000,0
"05/05/08","01:07:20",279.000,"cc",28333.672,6,0.100,121.000,0.200,33.000,0.300,48.000,0.500,77.000,1.000,0,5.000,0
"05/05/08","01:07:26",247.000,"cc",28295.811,6,0.100,95.000,0.200,28.000,0.300,60.000,0.500,64.000,1.000,0,5.000,0
"05/05/08","01:07:32",270.000,"cc",28368.582,6,0.100,109.000,0.200,34.000,0.300,52.000,0.500,72.000,1.000,3.000,5.000,0
"05/05/08","01:07:38",208.000,"cc",28349.664,6,0.100,76.000,0.200,30.000,0.300,46.000,0.500,56.000,1.000,0,5.000,0
"05/05/08","01:07:44",240.000,"cc",28263.252,6,0.100,105.000,0.200,27.000,0.300,39.000,0.500,69.000,1.000,0,5.000,0
"05/05/08","01:07:50",244.000,"cc",28365.106,6,0.100,104.000,0.200,29.000,0.300,49.000,0.500,60.000,1.000,2.000,5.000,0
"05/05/08","01:07:56",253.000,"cc",28362.117,6,0.100,105.000,0.200,33.000,0.300,48.000,0.500,66.000,1.000,1.000,5.000,0
"05/05/08","01:08:02",274.000,"cc",28259.408,6,0.100,105.000,0.200,48.000,0.300,58.000,0.500,62.000,1.000,1.000,5.000,0
"05/05/08","01:08:08",7312.000,"cc",27914.139,6,0.100,5955.000,0.200,678.000,0.300,288.000,0.500,284.000,1.000,96.000,5.000,11.000
"05/05/08","01:08:14",446.000,"cc",27708.481,6,0.100,221.000,0.200,70.000,0.300,57.000,0.500,90.000,1.000,8.000,5.000,0
"05/05/08","01:08:20",303.000,"cc",27705.871,6,0.100,136.000,0.200,40.000,0.300,45.000,0.500,78.000,1.000,4.000,5.000,0
"05/05/08","01:08:26",292.000,"cc",27635.094,6,0.100,136.000,0.200,31.000,0.300,39.000,0.500,86.000,1.000,0,5.000,0
"05/05/08","01:08:32",267.000,"cc",27533.785,6,0.100,108.000,0.200,35.000,0.300,41.000,0.500,83.000,1.000,0,5.000,0
"05/05/08","01:08:38",276.000,"cc",27504.637,6,0.100,98.000,0.200,35.000,0.300,55.000,0.500,86.000,1.000,2.000,5.000,0
"05/05/08","01:08:44",241.000,"cc",27429.440,6,0.100,105.000,0.200,26.000,0.300,43.000,0.500,66.000,1.000,1.000,5.000,0
"05/05/08","01:08:50",256.000,"cc",27388.393,6,0.100,97.000,0.200,29.000,0.300,48.000,0.500,79.000,1.000,3.000,5.000,0
"05/05/08","01:08:56",269.000,"cc",27395.510,6,0.100,130.000,0.200,43.000,0.300,37.000,0.500,58.000,1.000,1.000,5.000,0
"05/05/08","01:09:02",264.000,"cc",27329.084,6,0.100,115.000,0.200,36.000,0.300,47.000,0.500,63.000,1.000,3.000,5.000,0
"05/05/08","01:09:08",255.000,"cc",27407.936,6,0.100,118.000,0.200,28.000,0.300,45.000,0.500,62.000,1.000,2.000,5.000,0
"05/05/08","01:09:14",280.000,"cc",27395.445,6,0.100,120.000,0.200,38.000,0.300,45.000,0.500,74.000,1.000,3.000,5.000,0
"05/05/08","01:09:20",289.000,"cc",27347.293,6,0.100,141.000,0.200,29.000,0.300,38.000,0.500,79.000,1.000,2.000,5.000,0
"05/05/08","01:09:26",284.000,"cc",27365.008,6,0.100,120.000,0.200,38.000,0.300,41.000,0.500,85.000,1.000,0,5.000,0
"05/05/08","01:09:32",236.000,"cc",27417.711,6,0.100,103.000,0.200,29.000,0.300,39.000,0.500,64.000,1.000,1.000,5.000,0
"05/05/08","01:09:38",257.000,"cc",27611.486,6,0.100,101.000,0.200,36.000,0.300,39.000,0.500,81.000,1.000,0,5.000,0
"05/05/08","01:09:44",264.000,"cc",27792.225,6,0.100,128.000,0.200,25.000,0.300,35.000,0.500,75.000,1.000,1.000,5.000,0
"05/05/08","01:09:50",271.000,"cc",28181.602,6,0.100,114.000,0.200,36.000,0.300,34.000,0.500,85.000,1.000,2.000,5.000,0
"05/05/08","01:09:56",255.000,"cc",28646.598,6,0.100,105.000,0.200,40.000,0.300,47.000,0.500,62.000,1.000,1.000,5.000,0
"05/05/08","01:10:02",269.000,"cc",29155.397,6,0.100,129.000,0.200,35.000,0.300,50.000,0.500,51.000,1.000,4.000,5.000,0
"05/05/08","01:10:08",280.000,"cc",29322.719,6,0.100,136.000,0.200,31.000,0.300,58.000,0.500,54.000,1.000,1.000,5.000,0
"05/05/08","01:10:14",273.000,"cc",29247.123,6,0.100,111.000,0.200,35.000,0.300,58.000,0.500,69.000,1.000,0,5.000,0
"05/05/08","01:10:20",260.000,"cc",29296.875,6,0.100,127.000,0.200,26.000,0.300,47.000,0.500,60.000,1.000,0,5.000,0
"05/05/08","01:10:26",260.000,"cc",29312.676,6,0.100,111.000,0.200,26.000,0.300,49.000,0.500,73.000,1.000,1.000,5.000,0
"05/05/08","01:10:32",251.000,"cc",29234.190,6,0.100,113.000,0.200,34.000,0.300,46.000,0.500,57.000,1.000,1.000,5.000,0
"05/05/08","01:10:38",281.000,"cc",29290.055,6,0.100,116.000,0.200,35.000,0.300,58.000,0.500,70.000,1.000,2.000,5.000,0
"05/05/08","01:10:44",263.000,"cc",29322.145,6,0.100,117.000,0.200,30.000,0.300,48.000,0.500,66.000,1.000,2.000,5.000,0
"05/05/08","01:10:50",262.000,"cc",29293.883,6,0.100,139.000,0.200,22.000,0.300,48.000,0.500,50.000,1.000,3.000,5.000,0
"05/05/08","01:10:56",247.000,"cc",29261.707,6,0.100,110.000,0.200,33.000,0.300,52.000,0.500,51.000,1.000,1.000,5.000,0
"05/05/08","01:11:02",256.000,"cc",29316.094,6,0.100,127.000,0.200,27.000,0.300,46.000,0.500,55.000,1.000,1.000,5.000,0
"05/05/08","01:11:08",252.000,"cc",29282.715,6,0.100,128.000,0.200,32.000,0.300,29.000,0.500,60.000,1.000,3.000,5.000,0
"05/05/08","01:11:14",214.000,"cc",29247.080,6,0.100,93.000,0.200,25.000,0.300,38.000,0.500,56.000,1.000,2.000,5.000,0
"05/05/08","01:11:20",212.000,"cc",28904.701,6,0.100,87.000,0.200,28.000,0.300,46.000,0.500,51.000,1.000,0,5.000,0
"05/05/08","01:11:26",228.000,"cc",28476.940,6,0.100,102.000,0.200,42.000,0.300,44.000,0.500,40.000,1.000,0,5.000,0
"05/05/08","01:11:32",258.000,"cc",28350.674,6,0.100,128.000,0.200,30.000,0.300,36.000,0.500,64.000,1.000,0,5.000,0
"05/05/08","01:11:38",234.000,"cc",28285.512,6,0.100,117.000,0.200,33.000,0.300,49.000,0.500,34.000,1.000,1.000,5.000,0
"05/05/08","01:11:44",228.000,"cc",28348.721,6,0.100,111.000,0.200,36.000,0.300,43.000,0.500,37.000,1.000,1.000,5.000,0
"05/05/08","01:11:50",236.000,"cc",28366.836,6,0.100,105.000,0.200,29.000,0.300,43.000,0.500,58.000,1.000,1.000,5.000,0
"05/05/08","01:11:56",233.000,"cc",28268.639,6,0.100,109.000,0.200,31.000,0.300,50.000,0.500,42.000,1.000,1.000,5.000,0
"05/05/08","01:12:02",238.000,"cc",28322.535,6,0.100,114.000,0.200,33.000,0.300,40.000,0.500,50.000,1.000,1.000,5.000,0
"05/05/08","01:12:08",217.000,"cc",28320.231,6,0.100,88.000,0.200,31.000,0.300,45.000,0.500,50.000,1.000,3.000,5.000,0
"05/05/08","01:12:14",220.000,"cc",28280.297,6,0.100,104.000,0.200,37.000,0.300,41.000,0.500,37.000,1.000,1.000,5.000,0
"05/05/08","01:12:20",217.000,"cc",28335.809,6,0.100,104.000,0.200,33.000,0.300,37.000,0.500,42.000,1.000,1.000,5.000,0
"05/05/08","01:12:26",244.000,"cc",28333.973,6,0.100,113.000,0.200,40.000,0.300,45.000,0.500,46.000,1.000,0,5.000,0
"05/05/08","01:12:32",204.000,"cc",28235.498,6,0.100,88.000,0.200,22.000,0.300,49.000,0.500,45.000,1.000,0,5.000,0
"05/05/08","01:12:38",231.000,"cc",28345.123,6,0.100,102.000,0.200,33.000,0.300,45.000,0.500,50.000,1.000,1.000,5.000,0
"05/05/08","01:12:44",246.000,"cc",28331.441,6,0.100,102.000,0.200,33.000,0.300,54.000,0.500,57.000,1.000,0,5.000,0
"05/05/08","01:12:50",246.000,"cc",28314.076,6,0.100,107.000,0.200,28.000,0.300,57.000,0.500,53.000,1.000,1.000,5.000,0
"05/05/08","01:12:56",244.000,"cc",28335.996,6,0.100,112.000,0.200,21.000,0.300,50.000,0.500,60.000,1.000,1.000,5.000,0
"05/05/08","01:13:02",218.000,"cc",28340.613,6,0.100,115.000,0.200,37.000,0.300,29.000,0.500,37.000,1.000,0,5.000,0
"05/05/08","01:13:08",225.000,"cc",28318.188,6,0.100,104.000,0.200,35.000,0.300,40.000,0.500,45.000,1.000,1.000,5.000,0
"05/05/08","01:13:14",200.000,"cc",28342.584,6,0.100,90.000,0.200,30.000,0.300,41.000,0.500,39.000,1.000,0,5.000,0
"05/05/08","01:13:20",208.000,"cc",28303.004,6,0.100,104.000,0.200,24.000,0.300,52.000,0.500,27.000,1.000,1.000,5.000,0
"05/05/08","01:13:26",220.000,"cc",28295.723,6,0.100,104.000,0.200,26.000,0.300,47.000,0.500,43.000,1.000,0,5.000,0
"05/05/08","01:13:32",226.000,"cc",28307.104,6,0.100,95.000,0.200,26.000,0.300,53.000,0.500,52.000,1.000,0,5.000,0
"05/05/08","01:13:38",221.000,"cc",28294.272,6,0.100,98.000,0.200,27.000,0.300,41.000,0.500,55.000,1.000,0,5.000,0
"05/05/08","01:13:44",231.000,"cc",28271.744,6,0.100,130.000,0.200,30.000,0.300,38.000,0.500,33.000,1.000,0,5.000,0
"05/05/08","01:13:50",234.000,"cc",28344.490,6,0.100,105.000,0.200,34.000,0.300,47.000,0.500,48.000,1.000,0,5.000,0
"05/05/08","01:13:56",220.000,"cc",28330.199,6,0.100,97.000,0.200,39.000,0.300,46.000,0.500,38.000,1.000,0,5.000,0
"05/05/08","01:14:02",235.000,"cc",28331.629,6,0.100,105.000,0.200,30.000,0.300,46.000,0.500,54.000,1.000,0,5.000,0
"05/05/08","01:14:08",218.000,"cc",28329.877,6,0.100,95.000,0.200,44.000,0.300,34.000,0.500,45.000,1.000,0,5.000,0
"05/05/08","01:14:14",215.000,"cc",28386.893,6,0.100,101.000,0.200,36.000,0.300,38.000,0.500,40.000,1.000,0,5.000,0
"05/05/08","01:14:20",259.000,"cc",28304.732,6,0.100,111.000,0.200,38.000,0.300,57.000,0.500,52.000,1.000,1.000,5.000,0
"05/05/08","01:14:26",228.000,"cc",28326.236,6,0.100,99.000,0.200,31.000,0.300,47.000,0.500,50.000,1.000,1.000,5.000,0
"05/05/08","01:14:32",229.000,"cc",28292.750,6,0.100,109.000,0.200,39.000,0.300,38.000,0.500,42.000,1.000,1.000,5.000,0
"05/05/08","01:14:38",236.000,"cc",28328.397,6,0.100,116.000,0.200,24.000,0.300,44.000,0.500,50.000,1.000,2.000,5.000,0
"05/05/08","01:14:44",226.000,"cc",28308.053,6,0.100,96.000,0.200,36.000,0.300,46.000,0.500,48.000,1.000,0,5.000,0
"05/05/08","01:14:50",229.000,"cc",28275.971,6,0.100,110.000,0.200,35.000,0.300,59.000,0.500,24.000,1.000,1.000,5.000,0
"05/05/08","01:14:56",213.000,"cc",28316.766,6,0.100,112.000,0.200,34.000,0.300,35.000,0.500,32.000,1.000,0,5.000,0
"05/05/08","01:15:02",222.000,"cc",28307.381,6,0.100,118.000,0.200,30.000,0.300,32.000,0.500,41.000,1.000,1.000,5.000,0
"05/05/08","01:15:08",190.000,"cc",28358.795,6,0.100,84.000,0.200,35.000,0.300,44.000,0.500,27.000,1.000,0,5.000,0
"05/05/08","01:15:14",226.000,"cc",28254.238,6,0.100,104.000,0.200,30.000,0.300,37.000,0.500,55.000,1.000,0,5.000,0
"05/05/08","01:15:20",234.000,"cc",28341.434,6,0.100,132.000,0.200,38.000,0.300,30.000,0.500,33.000,1.000,1.000,5.000,0
"05/05/08","01:15:26",210.000,"cc",28377.123,6,0.100,100.000,0.200,30.000,0.300,43.000,0.500,37.000,1.000,0,5.000,0
"05/05/08","01:15:32",207.000,"cc",28274.537,6,0.100,102.000,0.200,27.000,0.300,42.000,0.500,36.000,1.000,0,5.000,0
"05/05/08","01:15:38",205.000,"cc",28335.631,6,0.100,104.000,0.200,22.000,0.300,39.000,0.500,39.000,1.000,1.000,5.000,0
"05/05/08","01:15:44",239.000,"cc",28284.977,6,0.100,109.000,0.200,35.000,0.300,52.000,0.500,42.000,1.000,1.000,5.000,0
"05/05/08","01:15:50",256.000,"cc",28290.650,6,0.100,126.000,0.200,30.000,0.300,52.000,0.500,47.000,1.000,1.000,5.000,0
"05/05/08","01:15:56",229.000,"cc",28327.555,6,0.100,112.000,0.200,33.000,0.300,49.000,0.500,35.000,1.000,0,5.000,0
"05/05/08","01:16:02",241.000,"cc",28351.221,6,0.100,113.000,0.200,41.000,0.300,47.000,0.500,40.000,1.000,0,5.000,0
"05/05/08","01:16:08",220.000,"cc",28314.178,6,0.100,97.000,0.200,39.000,0.300,47.000,0.500,37.000,1.000,0,5.000,0
"05/05/08","01:16:14",207.000,"cc",28309.668,6,0.100,101.000,0.200,32.000,0.300,47.000,0.500,27.000,1.000,0,5.000,0
"05/05/08","01:16:20",197.000,"cc",28317.840,6,0.100,94.000,0.200,30.000,0.300,39.000,0.500,34.000,1.000,0,5.000,0
"05/05/08","01:16:26",242.000,"cc",28384.238,6,0.100,137.000,0.200,26.000,0.300,42.000,0.500,36.000,1.000,1.000,5.000,0
"05/05/08","01:16:32",254.000,"cc",28341.697,6,0.100,102.000,0.200,39.000,0.300,61.000,0.500,52.000,1.000,0,5.000,0
"05/05/08","01:16:38",206.000,"cc",28271.020,6,0.100,109.000,0.200,31.000,0.300,37.000,0.500,29.000,1.000,0,5.000,0
"05/05/08","01:16:44",193.000,"cc",28311.811,6,0.100,80.000,0.200,32.000,0.300,42.000,0.500,39.000,1.000,0,5.000,0
"05/05/08","01:16:50",207.000,"cc",28419.565,6,0.100,107.000,0.200,22.000,0.300,45.000,0.500,32.000,1.000,1.000,5.000,0
"05/05/08","01:16:56",236.000,"cc",28240.723,6,0.100,108.000,0.200,34.000,0.300,57.000,0.500,36.000,1.000,1.000,5.000,0
"05/05/08","01:17:02",222.000,"cc",28302.852,6,0.100,116.000,0.200,26.000,0.300,56.000,0.500,24.000,1.000,0,5.000,0
"05/05/08","01:17:08",247.000,"cc",28335.606,6,0.100,114.000,0.200,27.000,0.300,61.000,0.500,45.000,1.000,0,5.000,0
"05/05/08","01:17:14",232.000,"cc",28269.668,6,0.100,102.000,0.200,29.000,0.300,61.000,0.500,40.000,1.000,0,5.000,0
"05/05/08","01:17:20",246.000,"cc",28306.977,6,0.100,119.000,0.200,30.000,0.300,48.000,0.500,49.000,1.000,0,5.000,0
"05/05/08","01:17:26",208.000,"cc",28343.662,6,0.100,104.000,0.200,19.000,0.300,46.000,0.500,39.000,1.000,0,5.000,0
"05/05/08","01:17:32",207.000,"cc",28307.166,6,0.100,102.000,0.200,31.000,0.300,46.000,0.500,28.000,1.000,0,5.000,0
"05/05/08","01:17:38",221.000,"cc",28314.248,6,0.100,97.000,0.200,30.000,0.300,52.000,0.500,42.000,1.000,0,5.000,0
"05/05/08","01:17:44",266.000,"cc",28326.834,6,0.100,120.000,0.200,41.000,0.300,67.000,0.500,38.000,1.000,0,5.000,0
"05/05/08","01:17:50",264.000,"cc",28299.320,6,0.100,134.000,0.200,41.000,0.300,53.000,0.500,36.000,1.000,0,5.000,0
"05/05/08","01:17:56",239.000,"cc",28314.479,6,0.100,103.000,0.200,33.000,0.300,50.000,0.500,53.000,1.000,0,5.000,0
"05/05/08","01:18:02",211.000,"cc",28367.039,6,0.100,95.000,0.200,28.000,0.300,56.000,0.500,32.000,1.000,0,5.000,0
"05/05/08","01:18:08",206.000,"cc",28253.191,6,0.100,100.000,0.200,26.000,0.300,53.000,0.500,27.000,1.000,0,5.000,0
"05/05/08","01:18:14",231.000,"cc",28273.240,6,0.100,101.000,0.200,43.000,0.300,44.000,0.500,43.000,1.000,0,5.000,0
"05/05/08","01:18:20",220.000,"cc",28401.611,6,0.100,106.000,0.200,40.000,0.300,36.000,0.500,38.000,1.000,0,5.000,0
"05/05/08","01:18:26",238.000,"cc",28313.990,6,0.100,107.000,0.200,40.000,0.300,54.000,0.500,37.000,1.000,0,5.000,0
"05/05/08","01:18:32",223.000,"cc",28304.254,6,0.100,111.000,0.200,36.000,0.300,49.000,0.500,26.000,1.000,1.000,5.000,0
"05/05/08","01:18:38",194.000,"cc",28338.092,6,0.100,92.000,0.200,30.000,0.300,39.000,0.500,33.000,1.000,0,5.000,0
"05/05/08","01:18:44",234.000,"cc",28344.834,6,0.100,105.000,0.200,36.000,0.300,45.000,0.500,48.000,1.000,0,5.000,0
"05/05/08","01:18:50",230.000,"cc",28282.445,6,0.100,96.000,0.200,37.000,0.300,57.000,0.500,40.000,1.000,0,5.000,0
"05/05/08","01:18:56",205.000,"cc",28291.932,6,0.100,89.000,0.200,30.000,0.300,53.000,0.500,33.000,1.000,0,5.000,0
"05/05/08","01:19:02",234.000,"cc",28323.836,6,0.100,112.000,0.200,33.000,0.300,54.000,0.500,35.000,1.000,0,5.000,0